sat.trackr.live / text

‹ back to catalog

ONEWEB-0182

NORAD 48228 · 2021-031U

PAYLOAD ACTIVE UNKNOWN

§ Identity

Operator
Country
UK
Launch date
2021-04-25
Launch site
VOSTO
Launch vehicle
Mass (kg)
RCS (m²)

Purposes: comms

External: N2YO · Heavens-Above · Gunter

§ Orbital elements

Epoch: 2026-05-25T02:50:34.994112Z

Period
109.55 min
Inclination
87.8943°
Eccentricity
0.0002057
Mean motion
13.14501432 rev/d
Perigee alt
1,204.2 km
Apogee alt
1,207.4 km
Semi-major
7,583.9 km
B*
-1.8586e-4
RAAN
294.3062°
Arg perigee
99.0823°
Mean anomaly
261.0540°
Rev number
24,540

§ Raw data

ONEWEB-01821 48228U 21031U   26145.11846058 -.00000056  00000+0 -18586-3 0  99952 48228  87.8943 294.3062 0002057  99.0823 261.0540 13.14501432245403

JSON: /api/v1/satellites/48228 · /tle

For live sub-satellite position, see the globe view (requires WebGL).

§ Visibility from observer

Set your observer location to see the next 7 days of passes ≥ 10°. The values pass through the URL so the page stays shareable.

No JS? Fill the form by hand. The geolocation button needs JavaScript.